Location: Cabanillas del Monte
(40.9765°N, 4.0317°W)
Time: 22:21:01
(UTC+00:00)

Daily predictions for brighter satellites

Satellite Brightness Start Highest point End
(mag) Time Altitude Azimuth Time Altitude Azimuth Time Altitude Azimuth
Cosmos 1725 Rocket 4.3 18:07:10 10° N 18:13:25 76° W 18:19:40 10° S
SAR-Lupe-1 4.3 18:12:02 10° SSE 18:15:27 46° ENE 18:18:53 10° N
USA 234 3.3 18:09:42 10° ESE 18:16:11 67° NE 18:22:42 10° NW
Cosmos 1980 4.0 18:11:17 10° NNW 18:16:40 44° ENE 18:22:02 10° SE
SJ-6F 4.3 18:14:27 10° SSE 18:18:23 77° ENE 18:22:19 10° N
Cosmos 773 Rocket 4.4 18:16:00 10° S 18:20:55 42° ESE 18:25:52 10° NNE
Cosmos 2237 Rocket 2.5 18:16:25 10° NNW 18:21:52 45° ENE 18:27:17 10° SE
Spot 4 Rocket 4.5 18:17:38 10° SE 18:22:21 39° ENE 18:27:04 10° N
COSMOS 2428 3.0 18:16:40 10° NNW 18:22:24 77° WSW 18:28:06 10° SSE
ARIANE 5 R/B 3.1 18:21:44 10° S 18:26:48 63° WSW 18:31:50 10° NNW
Cosmos 2208 Rocket 4.4 18:21:57 10° S 18:26:52 44° ESE 18:31:52 10° NNE
Okean 1 Rocket 3.0 18:25:48 10° N 18:30:12 79° E 18:34:31 10° S
SAR-Lupe-4 3.5 18:28:02 10° SSE 18:31:35 80° ENE 18:35:10 10° N
Cosmos 44 Rocket 3.3 18:30:55 10° SSW 18:35:46 75° ESE 18:40:48 10° NE
Cosmos 1346 Rocket 3.9 18:33:44 10° SE 18:36:20 19° E 18:38:57 10° NE
Cosmos 2221 Rocket 3.9 18:33:18 10° SSW 18:37:45 74° W 18:42:15 10° N
Okean 2 Rocket 3.4 18:33:59 10° NNW 18:38:22 71° W 18:42:41 10° S
Cosmos 1025 Rocket 3.9 18:34:37 10° SSW 18:38:49 52° W 18:43:04 10° N
Cosmos 2061 Rocket 4.2 18:32:38 10° N 18:39:01 81° W 18:45:16 10° S
Cosmos 1602 3.8 18:37:36 10° SSE 18:40:00 27° E 18:42:23 10° NNE
CZ-4C R/B 3.7 18:37:07 10° W 18:40:40 24° NW 18:44:56 10° NNE
Cosmos 836 Rocket 4.5 18:37:09 10° SSW 18:42:25 82° ESE 18:47:43 10° NNE
Cosmos 2227 Rocket 2.4 18:37:37 10° S 18:43:00 49° ESE 18:48:25 10° NE
Cosmos 1464 Rocket 4.5 18:38:57 10° N 18:44:48 38° ENE 18:50:34 10° SE
Delta 2 Rocket 4.0 18:43:19 10° WSW 18:45:58 28° S 18:48:18 13° SE
SL-16 R/B 3.4 18:43:50 10° N 18:48:12 22° NE 18:50:50 16° E
Helios 1A Rocket 3.6 18:49:53 20° E 18:50:31 21° E 18:53:04 10° SSE
NOSS 3-4 (A) 4.0 18:45:14 10° NNW 18:51:59 56° NE 18:59:53 10° SE
NOSS 3-4 (C) 4.0 18:45:31 10° NNW 18:52:17 56° NE 19:00:10 10° SE
Resurs 1-3 3.8 18:50:21 10° S 18:54:38 72° W 18:58:56 10° NNW
Sich 1 Rocket 4.3 18:50:42 10° NNW 18:55:11 58° W 18:59:38 10° S
Aureole 3 Rocket 2.4 18:51:44 10° N 18:55:15 77° W 18:58:17 10° S
Cosmos 2150 Rocket 4.3 18:51:10 10° N 18:56:05 43° ENE 19:00:56 10° SE
Cosmos 2298 Rocket 4.3 18:55:04 10° N 19:00:08 45° ENE 19:05:12 10° SE
Resurs 01 Rocket 1.6 18:58:10 10° SSE 19:02:27 57° ENE 19:06:48 10° N
BREEZE-M DEB (TANK) 3.4 19:00:53 10° SSW 19:04:08 49° SE 19:11:13 15° ENE
Cosmos 1782 3.0 19:05:23 10° N 19:08:43 36° ENE 19:09:32 31° ESE
Gbstr 26 Del rocket 4.2 19:03:04 10° SW 19:09:32 67° SE 19:15:03 20° ENE
CARTOSAT-1 3.5 19:08:07 10° S 19:12:18 81° WSW 19:16:32 10° NNW
Atlas Centaur 2 4.0 19:08:48 10° WSW 19:15:44 34° S 19:20:55 14° SE
CSL-04 Rocket 4.3 19:17:14 29° E 19:18:26 32° ENE 19:23:05 10° N
ARIANE 6 FM1 Upper Stage 4.2 19:19:13 10° N 19:21:31 19° NNE 19:21:31 19° NNE
Cosmos 2297 Rocket 3.9 19:22:41 10° WSW 19:27:41 32° WNW 19:32:43 10° N
BREEZE-M DEB (TANK) 4.3 19:23:33 10° NW 19:27:51 76° NNE 19:36:56 21° ESE
Cosmos 2058 2.6 19:25:12 10° S 19:29:01 59° E 19:29:54 45° NE
SJ-6B 2.3 19:28:11 28° SSE 19:29:53 83° ENE 19:33:20 10° N
SPOT 5 3.3 19:31:23 39° ENE 19:31:23 39° ENE 19:36:00 10° N
Tiangong -2.0 19:29:35 10° W 19:32:34 74° NW 19:32:34 74° NW
Tsikada Rocket 4.2 19:27:06 10° SSE 19:32:51 44° E 19:38:39 10° NNE
SeaSat 1 4.4 19:29:28 10° S 19:33:43 30° WSW 19:37:59 10° NW
Cosmos 2084 3.4 19:31:06 10° SSW 19:35:02 54° SE 19:35:02 54° SE
IRAS Rocket 4.2 19:32:16 10° SSE 19:37:52 89° W 19:43:31 10° NNW
Cosmos 2228 3.5 19:38:53 10° NNW 19:43:01 59° W 19:47:08 10° S
Cosmos 2219 3.2 19:38:27 10° S 19:44:02 57° ESE 19:45:34 43° ENE
Cosmos 1544 Rocket 3.5 19:42:16 10° N 19:46:04 61° NE 19:46:04 61° NE
BREEZE M DEB (TANK) 4.3 19:28:19 10° SW 19:47:09 51° SSE 19:49:17 40° ESE
Cosmos 1975 Rocket 4.5 19:45:43 10° SSW 19:49:46 38° WNW 19:53:49 10° N
Cosmos 2263 Rocket 2.3 19:48:09 10° SSW 19:53:49 75° WNW 19:58:28 16° NNE
Orbus 7S? 3.6 19:50:46 10° NW 19:56:52 74° N 19:56:52 74° N
Cosmos 2034 Rocket 4.0 19:57:14 10° N 20:03:25 81° W 20:09:38 10° S
Cosmos 2237 Rocket 4.3 20:01:00 10° NW 20:05:37 26° WSW 20:10:12 10° SSW
Cosmos 1634 Rocket 4.0 20:03:36 10° N 20:09:11 59° NE 20:09:11 59° NE
Cosmos 2082 3.7 20:06:26 10° SSW 20:11:25 68° S 20:11:25 68° S
Cosmos 2344 3.9 20:11:49 10° SW 20:19:44 60° NW 20:24:32 22° NNE
Cosmos 2227 Rocket 4.2 20:22:38 10° WSW 20:27:16 26° NW 20:31:55 10° N
SL-16 R/B 2.6 20:27:07 10° NNW 20:32:40 58° WSW 20:32:45 58° WSW
